ONEWEB-0544 (55144 NORAD) Tracking and Keplerian Element Data

This shows tracking and keplerian element data for the satellite.

Feedback or suggestion? Click here.




ElementValue
Catalog55144
NameONEWEB-0544
Epoch Orbit1120
Epoch Day84.9315
Epoch Year2023
RAAN253.6575
Inclination86.6236
Eccentricity0.0012528
Argument of Perigee332.6601
Mean Anonmoly27.3951
Mean Motion14.65729474
Decay Rate1.584E-05
L11 55144U 23004E 23084.93150000 .00001584 00000+0 28661-3 0 9996
L22 55144 86.6236 253.6575 0012528 332.6601 27.3951 14.65729474 11204



Live tracking and technical data element details for ONEWEB-0544 (NORAD 55144). ONEWEB-0544 can be tracked NOW for your location showing map with azimuth and elevation plus other details from your city location.







IsCatalogInMostPopularTable: catalog: 55144, numindb: 9
Update: records affected: 1



GetName: 55144 ONEWEB-0544

Hit Count: updated at: Mon, 27 Mar 2023 06:59:05 GMT